This demonstration page uses our WeatherBlox Daily Observations layout. Learn more.

Left ArrowRight Arrow

Hourly Observations for March 18, 2018

Temp ( °F °C ) Dew Point ( °F °C ) Humidity (%) Winds ( mph kmh ) Pressure ( in mb ) Visibility ( mi km ) Precip ( " mm )
12:53 am 00:53 Cloudy 34 1.1 31 -0.6 89 89 SE 9 15 30.05 1018 10 16 0.00 0.00
1:07 am 01:07 Mostly Cloudy 34 1 30 -1 87 87 SE 7 11 30.09 1019 10 16 0.00 0.00
1:15 am 01:15 Partly Cloudy 33 0.6 31 -0.6 92 92 SE 6 9 30.09 1019 10 16 0.00 0.00
1:53 am 01:53 Clear 32 0 30 -1.1 92 92 ESE 8 13 30.04 1017 10 16 0.00 0.00
2:53 am 02:53 Clear 32 0 31 -0.6 96 96 SSE 6 9 30.05 1018 9 14 0.00 0.00
3:53 am 03:53 Clear 30 -1.1 30 -1.1 100 100 SSE 3 6 30.04 1017 7 11 0.00 0.00
4:53 am 04:53 Clear with Mist and Fog 29 -1.7 29 -1.7 100 100 Calm 30.02 1017 5 8 0.00 0.00
5:53 am 05:53 Clear with Mist and Fog 28 -2.2 27 -2.8 96 96 ESE 5 7 30.01 1016 5 8 0.00 0.00
6:53 am 06:53 Clear with Mist and Fog 27 -2.8 26 -3.3 96 96 E 8 13 29.99 1016 4 6 0.00 0.00
7:07 am 07:07 Partly Cloudy with Mist and Fog 29 -1.7 29 -1.7 100 100 E 6 9 30.03 1017 3 5 0.00 0.00
7:12 am 07:12 Mostly Cloudy with Mist and Fog 30 -1.1 30 -1.1 100 100 E 6 9 30.03 1017 3 4 0.00 0.00
7:28 am 07:28 Mostly Cloudy with Mist and Fog 30 -1 30 -1 100 100 SSE 7 11 30.06 1018 4 6 0.00 0.00
7:53 am 07:53 Cloudy with Mist and Fog 31 -0.6 30 -1.1 96 96 SE 7 11 30.01 1016 3 5 0.00 0.00
8:18 am 08:18 Cloudy with Mist and Fog 31 -0.6 31 -0.6 100 100 SE 7 11 30.06 1018 3 4 0.00 0.00
8:53 am 08:53 Cloudy with Mist and Fog 31 -0.6 31 -0.6 100 100 SE 8 13 30.01 1016 3 4 0.00 0.00
9:08 am 09:08 Cloudy with Mist and Fog 32 0 32 0 100 100 SE 7 11 30.06 1018 3 4 0.00 0.00
9:21 am 09:21 Cloudy with Mist and Fog 32 0 32 0 100 100 SSE 9 15 30.06 1018 3 4 0.00 0.00
9:29 am 09:29 Cloudy with Mist and Fog 32 0 32 0 100 100 SSE 9 15 30.06 1018 3 5 0.00 0.00
9:53 am 09:53 Cloudy with Mist and Fog 33 0.6 33 0.6 100 100 SSE 8 13 30.00 1016 3 5 0.00 0.00
10:53 am 10:53 Cloudy with Mist and Fog 34 1.1 34 1.1 100 100 SSE 10 17 29.99 1016 4 6 0.00 0.00
11:39 am 11:39 Cloudy with Mist and Fog 34 1.1 33 0.6 97 97 SSE 12 19 30.03 1017 4 6 0.00 0.00
11:53 am 11:53 Cloudy with Mist and Fog 35 1.7 34 1.1 96 96 SE 10 17 29.97 1015 4 6 0.00 0.00
12:53 pm 12:53 Cloudy with Mist and Fog 36 2.2 34 1.1 93 93 SSE 8 13 29.98 1015 5 8 0.00 0.00
1:53 pm 13:53 Cloudy with Mist and Fog 37 2.8 35 1.7 93 93 SE 10 17 29.94 1014 5 8 0.00 0.00
2:49 pm 14:49 Cloudy with Mist and Fog 37 3 34 1 87 87 ESE 9 15 29.91 1013 6 10 0.00 0.00
2:53 pm 14:53 Cloudy with Haze 39 3.9 34 1.1 82 82 SSE 7 11 29.90 1013 6 10 0.00 0.00
3:41 pm 15:41 Cloudy with Light Rain 40 4.4 35 1.7 83 83 ESE 12 19 29.88 1012 7 11 0.00 0.03
3:53 pm 15:53 Cloudy 40 4.4 35 1.7 83 83 E 12 19 29.85 1011 8 13 0.00 0.03
4:53 pm 16:53 Cloudy 43 6.1 36 2.2 76 76 E 14 22 29.82 1010 10 16 0.00 0.03
5:53 pm 17:53 Cloudy 43 6.1 36 2.2 76 76 E 12 19 29.80 1009 9 14 0.00 0.00
6:53 pm 18:53 Cloudy 41 5 36 2.2 82 82 E 13 20 29.80 1009 10 16 0.00 0.00
7:02 pm 19:02 Cloudy 41 5 36 2 81 81 ESE 13 20 29.80 1009 10 16 0.00 0.00
7:53 pm 19:53 Cloudy 38 3.3 35 1.7 89 89 E 14 22 29.83 1010 9 14 0.00 0.00
8:53 pm 20:53 Cloudy 37 2.8 35 1.7 93 93 E 14 22 29.83 1010 7 11 0.00 0.00
9:53 pm 21:53 Cloudy with Mist and Fog 36 2.2 35 1.7 97 97 E 14 22 29.83 1010 6 10 0.00 0.00
10:12 pm 22:12 Cloudy with Mist and Fog 36 2 36 2 100 100 E 12 19 29.85 1011 5 8 0.00 0.00
10:53 pm 22:53 Cloudy with Heavy Rain 36 2.2 35 1.7 97 97 ENE 14 22 29.84 1011 3 4 0.02 0.51
11:20 pm 23:20 Cloudy with Light Rain 36 2.2 35 1.7 97 97 E 18 30 29.85 1011 5 8 0.01 0.25
11:48 pm 23:48 Cloudy 36 2 36 2 100 100 E 16 26 29.85 1011 8 13 0.00 0.00
11:53 pm 23:53 Cloudy 35 1.7 35 1.7 100 100 E 15 24 29.83 1010 7 11 0.01 0.25

Powered by AerisWeather